Time,TemperatureF,DewpointF,PressureIn,WindDirection,WindDirectionDegrees,WindSpeedMPH,WindSpeedGustMPH,Humidity,HourlyPrecipIn,Conditions,Clouds,dailyrainin,SoftwareType,DateUTC
2013-05-30 00:06:00,51.0,50.0,30.02,SSW,206,0.0,0.0,97,0.00,,,0.00,weatherlink.com 1.10,2013-05-30 04:06:00,
2013-05-30 00:36:00,51.2,50.0,30.02,SSW,206,0.0,1.0,97,0.00,,,0.00,weatherlink.com 1.10,2013-05-30 04:36:00,
2013-05-30 00:51:00,51.3,51.0,30.01,SSW,206,0.0,0.0,97,0.00,,,0.00,weatherlink.com 1.10,2013-05-30 04:51:00,
2013-05-30 01:06:00,51.6,51.0,30.02,SSW,206,1.0,1.0,97,0.00,,,0.00,weatherlink.com 1.10,2013-05-30 05:06:00,
2013-05-30 01:21:00,51.8,51.0,30.01,SW,226,0.0,1.0,97,0.00,,,0.00,weatherlink.com 1.10,2013-05-30 05:21:00,
2013-05-30 01:36:00,51.8,51.0,30.00,West,272,0.0,1.0,97,0.00,,,0.00,weatherlink.com 1.10,2013-05-30 05:36:00,
2013-05-30 01:51:00,51.9,51.0,30.01,West,271,0.0,0.0,97,0.00,,,0.00,weatherlink.com 1.10,2013-05-30 05:51:00,
2013-05-30 02:06:00,52.0,51.0,30.01,West,270,0.0,0.0,97,0.00,,,0.00,weatherlink.com 1.10,2013-05-30 06:06:00,
2013-05-30 02:21:00,52.0,51.0,30.00,West,260,0.0,0.0,97,0.00,,,0.00,weatherlink.com 1.10,2013-05-30 06:21:00,
2013-05-30 02:36:00,52.1,51.0,30.00,West,260,0.0,1.0,97,0.00,,,0.00,weatherlink.com 1.10,2013-05-30 06:36:00,
2013-05-30 02:51:00,52.0,51.0,30.01,West,281,0.0,5.0,97,0.00,,,0.00,weatherlink.com 1.10,2013-05-30 06:51:00,
2013-05-30 03:21:00,52.0,51.0,30.00,SW,225,0.0,1.0,97,0.00,,,0.00,weatherlink.com 1.10,2013-05-30 07:21:00,
2013-05-30 03:36:00,52.0,51.0,30.00,West,269,0.0,2.0,97,0.00,,,0.00,weatherlink.com 1.10,2013-05-30 07:36:00,
2013-05-30 03:51:00,52.1,51.0,29.99,SSE,160,0.0,1.0,97,0.00,,,0.00,weatherlink.com 1.10,2013-05-30 07:51:00,
2013-05-30 04:06:00,52.1,51.0,30.00,West,270,0.0,2.0,97,0.00,,,0.00,weatherlink.com 1.10,2013-05-30 08:06:00,
2013-05-30 04:21:00,52.0,51.0,30.00,South,187,0.0,2.0,97,0.00,,,0.00,weatherlink.com 1.10,2013-05-30 08:21:00,
2013-05-30 04:36:00,52.1,51.0,29.99,SW,225,0.0,1.0,97,0.00,,,0.00,weatherlink.com 1.10,2013-05-30 08:36:00,
2013-05-30 04:51:00,52.1,51.0,29.99,South,182,0.0,1.0,97,0.00,,,0.00,weatherlink.com 1.10,2013-05-30 08:51:00,
2013-05-30 05:06:00,52.2,51.0,30.00,South,188,0.0,0.0,97,0.00,,,0.00,weatherlink.com 1.10,2013-05-30 09:06:00,
2013-05-30 05:21:00,52.4,52.0,30.00,SSW,213,0.0,1.0,97,0.00,,,0.00,weatherlink.com 1.10,2013-05-30 09:21:00,
2013-05-30 05:36:00,52.6,52.0,30.00,SSW,211,0.0,1.0,97,0.00,,,0.00,weatherlink.com 1.10,2013-05-30 09:36:00,
2013-05-30 05:51:00,52.8,52.0,30.00,West,273,1.0,1.0,97,0.00,,,0.00,weatherlink.com 1.10,2013-05-30 09:51:00,
2013-05-30 06:06:00,52.8,52.0,30.00,SW,232,0.0,4.0,97,0.00,,,0.00,weatherlink.com 1.10,2013-05-30 10:06:00,
2013-05-30 06:21:00,52.8,52.0,30.00,SW,221,0.0,4.0,97,0.00,,,0.00,weatherlink.com 1.10,2013-05-30 10:21:00,
2013-05-30 06:36:00,53.4,53.0,30.00,West,279,1.0,4.0,97,0.00,,,0.00,weatherlink.com 1.10,2013-05-30 10:36:00,
2013-05-30 06:52:00,54.2,54.0,30.01,West,276,0.0,2.0,98,0.00,,,0.00,weatherlink.com 1.10,2013-05-30 10:52:00,
2013-05-30 07:07:00,54.9,54.0,30.01,West,281,1.0,4.0,98,0.00,,,0.00,weatherlink.com 1.10,2013-05-30 11:07:00,
2013-05-30 07:22:00,55.4,55.0,30.02,West,260,1.0,4.0,98,0.00,,,0.00,weatherlink.com 1.10,2013-05-30 11:22:00,
2013-05-30 07:37:00,56.2,56.0,30.02,West,281,2.0,5.0,98,0.00,,,0.00,weatherlink.com 1.10,2013-05-30 11:37:00,
2013-05-30 07:52:00,56.7,56.0,30.02,SE,137,2.0,5.0,97,0.00,,,0.00,weatherlink.com 1.10,2013-05-30 11:52:00,
2013-05-30 08:07:00,55.3,54.0,30.03,WNW,300,4.0,6.0,96,0.00,,,0.00,weatherlink.com 1.10,2013-05-30 12:07:00,
2013-05-30 08:22:00,55.4,55.0,30.04,WSW,249,4.0,6.0,97,0.00,,,0.00,weatherlink.com 1.10,2013-05-30 12:22:00,
2013-05-30 08:37:00,56.3,56.0,30.04,West,271,2.0,8.0,97,0.00,,,0.00,weatherlink.com 1.10,2013-05-30 12:37:00,
2013-05-30 08:52:00,57.7,57.0,30.04,WSW,249,0.0,5.0,98,0.00,,,0.00,weatherlink.com 1.10,2013-05-30 12:52:00,
2013-05-30 09:07:00,59.5,59.0,30.04,West,275,0.0,1.0,98,0.00,,,0.00,weatherlink.com 1.10,2013-05-30 13:07:00,
2013-05-30 09:22:00,61.4,61.0,30.04,SSE,167,0.0,6.0,98,0.00,,,0.00,weatherlink.com 1.10,2013-05-30 13:22:00,
2013-05-30 09:37:00,64.0,63.0,30.04,West,271,3.0,8.0,95,0.00,,,0.00,weatherlink.com 1.10,2013-05-30 13:37:00,
2013-05-30 09:52:00,66.6,63.0,30.04,WSW,249,5.0,10.0,89,0.00,,,0.00,weatherlink.com 1.10,2013-05-30 13:52:00,
2013-05-30 10:07:00,69.8,64.0,30.04,WNW,287,10.0,12.0,83,0.00,,,0.00,weatherlink.com 1.10,2013-05-30 14:07:00,
2013-05-30 10:22:00,71.2,65.0,30.03,West,268,5.0,10.0,80,0.00,,,0.00,weatherlink.com 1.10,2013-05-30 14:22:00,
2013-05-30 10:37:00,73.0,65.0,30.03,West,279,10.0,15.0,77,0.00,,,0.00,weatherlink.com 1.10,2013-05-30 14:37:00,
2013-05-30 10:52:00,73.9,64.0,30.04,West,276,10.0,15.0,72,0.00,,,0.00,weatherlink.com 1.10,2013-05-30 14:52:00,
2013-05-30 11:07:00,74.6,64.0,30.03,WNW,286,12.0,15.0,69,0.00,,,0.00,weatherlink.com 1.10,2013-05-30 15:07:00,
2013-05-30 11:22:00,75.0,62.0,30.03,WNW,296,10.0,16.0,65,0.00,,,0.00,weatherlink.com 1.10,2013-05-30 15:22:00,
2013-05-30 11:37:00,75.4,62.0,30.03,WNW,298,16.0,19.0,63,0.00,,,0.00,weatherlink.com 1.10,2013-05-30 15:37:00,
2013-05-30 11:53:00,75.7,64.0,30.02,WNW,290,12.0,15.0,66,0.00,,,0.00,weatherlink.com 1.10,2013-05-30 15:53:00,
2013-05-30 12:08:00,75.3,63.0,30.02,West,273,10.0,14.0,66,0.00,,,0.00,weatherlink.com 1.10,2013-05-30 16:08:00,
2013-05-30 12:23:00,76.0,63.0,30.02,WNW,286,4.0,11.0,65,0.00,,,0.00,weatherlink.com 1.10,2013-05-30 16:23:00,
2013-05-30 12:38:00,73.6,63.0,30.02,SW,236,4.0,9.0,69,0.00,,,0.00,weatherlink.com 1.10,2013-05-30 16:38:00,
2013-05-30 12:53:00,74.0,64.0,30.01,West,278,4.0,7.0,71,0.00,,,0.00,weatherlink.com 1.10,2013-05-30 16:53:00,
2013-05-30 13:08:00,74.7,63.0,30.01,West,279,9.0,10.0,67,0.00,,,0.00,weatherlink.com 1.10,2013-05-30 17:08:00,
2013-05-30 13:23:00,77.6,61.0,30.00,NW,304,12.0,22.0,56,0.00,,,0.00,weatherlink.com 1.10,2013-05-30 17:23:00,
2013-05-30 13:38:00,76.7,62.0,30.00,West,272,9.0,23.0,61,0.00,,,0.00,weatherlink.com 1.10,2013-05-30 17:38:00,
2013-05-30 13:53:00,74.7,62.0,30.00,WNW,302,5.0,12.0,65,0.00,,,0.00,weatherlink.com 1.10,2013-05-30 17:53:00,
2013-05-30 14:08:00,77.9,59.0,30.00,NW,310,13.0,23.0,53,0.00,,,0.00,weatherlink.com 1.10,2013-05-30 18:08:00,
2013-05-30 14:23:00,75.2,62.0,30.00,WSW,240,5.0,13.0,63,0.00,,,0.00,weatherlink.com 1.10,2013-05-30 18:23:00,
2013-05-30 14:38:00,71.6,63.0,30.00,SE,141,2.0,11.0,75,0.00,,,0.00,weatherlink.com 1.10,2013-05-30 18:38:00,
2013-05-30 14:53:00,72.5,63.0,30.00,SW,214,1.0,10.0,72,0.00,,,0.00,weatherlink.com 1.10,2013-05-30 18:53:00,
2013-05-30 15:08:00,71.9,63.0,30.00,SSW,213,4.0,13.0,73,0.00,,,0.00,weatherlink.com 1.10,2013-05-30 19:08:00,
2013-05-30 15:23:00,71.8,62.0,29.99,WNW,299,4.0,12.0,70,0.00,,,0.00,weatherlink.com 1.10,2013-05-30 19:23:00,
2013-05-30 15:38:00,70.8,62.0,30.00,SSW,195,8.0,12.0,73,0.00,,,0.00,weatherlink.com 1.10,2013-05-30 19:38:00,
2013-05-30 15:53:00,71.9,62.0,30.00,WSW,248,9.0,11.0,70,0.00,,,0.00,weatherlink.com 1.10,2013-05-30 19:53:00,
2013-05-30 16:08:00,71.6,62.0,30.00,WSW,255,2.0,11.0,71,0.00,,,0.00,weatherlink.com 1.10,2013-05-30 20:08:00,
2013-05-30 16:23:00,71.6,61.0,29.99,NNE,12,0.0,9.0,69,0.00,,,0.00,weatherlink.com 1.10,2013-05-30 20:23:00,
2013-05-30 16:38:00,71.5,60.0,29.99,West,281,0.0,1.0,68,0.00,,,0.00,weatherlink.com 1.10,2013-05-30 20:38:00,
2013-05-30 16:53:00,71.4,60.0,29.99,SSW,203,0.0,0.0,68,0.00,,,0.00,weatherlink.com 1.10,2013-05-30 20:53:00,
2013-05-30 17:09:00,73.3,61.0,29.99,West,276,0.0,0.0,66,0.00,,,0.00,weatherlink.com 1.10,2013-05-30 21:09:00,
2013-05-30 17:23:00,74.5,62.0,29.99,SW,223,0.0,0.0,65,0.00,,,0.00,weatherlink.com 1.10,2013-05-30 21:23:00,
2013-05-30 17:53:00,73.7,61.0,29.99,SE,141,0.0,0.0,65,0.00,,,0.00,weatherlink.com 1.10,2013-05-30 21:53:00,
2013-05-30 18:08:00,71.4,60.0,29.99,West,263,0.0,0.0,67,0.00,,,0.00,weatherlink.com 1.10,2013-05-30 22:08:00,
2013-05-30 18:23:00,70.9,60.0,29.99,SSW,213,0.0,0.0,68,0.00,,,0.00,weatherlink.com 1.10,2013-05-30 22:23:00,
2013-05-30 18:38:00,71.3,60.0,29.99,WSW,249,0.0,0.0,68,0.00,,,0.00,weatherlink.com 1.10,2013-05-30 22:38:00,
2013-05-30 18:53:00,71.2,61.0,29.99,SW,227,0.0,0.0,69,0.00,,,0.00,weatherlink.com 1.10,2013-05-30 22:53:00,
2013-05-30 19:08:00,70.5,60.0,29.99,SW,214,0.0,0.0,69,0.00,,,0.00,weatherlink.com 1.10,2013-05-30 23:08:00,
2013-05-30 19:23:00,70.2,59.0,29.99,SW,225,0.0,0.0,68,0.00,,,0.00,weatherlink.com 1.10,2013-05-30 23:23:00,
2013-05-30 19:38:00,69.0,59.0,30.00,West,263,0.0,0.0,70,0.00,,,0.00,weatherlink.com 1.10,2013-05-30 23:38:00,
2013-05-30 19:53:00,68.1,59.0,30.00,SSE,164,0.0,0.0,72,0.00,,,0.00,weatherlink.com 1.10,2013-05-30 23:53:00,
2013-05-30 20:08:00,66.9,59.0,30.01,SW,219,0.0,0.0,76,0.00,,,0.00,weatherlink.com 1.10,2013-05-31 00:08:00,
2013-05-30 20:23:00,64.7,58.0,30.01,SW,218,0.0,0.0,80,0.00,,,0.00,weatherlink.com 1.10,2013-05-31 00:23:00,
2013-05-30 20:38:00,64.1,58.0,30.01,SSE,153,0.0,0.0,81,0.00,,,0.00,weatherlink.com 1.10,2013-05-31 00:38:00,
2013-05-30 20:53:00,63.9,58.0,30.02,SSE,157,0.0,0.0,81,0.00,,,0.00,weatherlink.com 1.10,2013-05-31 00:53:00,
2013-05-30 21:08:00,63.3,58.0,30.02,SSE,162,0.0,0.0,82,0.00,,,0.00,weatherlink.com 1.10,2013-05-31 01:08:00,
2013-05-30 21:23:00,62.4,58.0,30.02,SSE,161,0.0,0.0,84,0.00,,,0.00,weatherlink.com 1.10,2013-05-31 01:23:00,
2013-05-30 21:38:00,61.5,57.0,30.02,SW,215,0.0,0.0,85,0.00,,,0.00,weatherlink.com 1.10,2013-05-31 01:38:00,
2013-05-30 21:53:00,60.9,57.0,30.02,West,275,0.0,0.0,86,0.00,,,0.00,weatherlink.com 1.10,2013-05-31 01:53:00,
2013-05-30 22:08:00,60.5,57.0,30.03,SSW,213,0.0,0.0,87,0.00,,,0.00,weatherlink.com 1.10,2013-05-31 02:08:00,
2013-05-30 22:23:00,60.0,57.0,30.03,West,273,0.0,0.0,88,0.00,,,0.00,weatherlink.com 1.10,2013-05-31 02:23:00,
2013-05-30 22:38:00,59.6,56.0,30.03,West,269,0.0,0.0,89,0.00,,,0.00,weatherlink.com 1.10,2013-05-31 02:38:00,
2013-05-30 22:53:00,59.6,56.0,30.03,SSW,205,0.0,0.0,89,0.00,,,0.00,weatherlink.com 1.10,2013-05-31 02:53:00,
2013-05-30 23:08:00,59.1,56.0,30.03,SSW,205,0.0,0.0,90,0.00,,,0.00,weatherlink.com 1.10,2013-05-31 03:08:00,
2013-05-30 23:23:00,58.6,56.0,30.04,SSW,205,0.0,0.0,91,0.00,,,0.00,weatherlink.com 1.10,2013-05-31 03:23:00,
2013-05-30 23:38:00,59.0,57.0,30.04,SSE,150,0.0,0.0,92,0.00,,,0.00,weatherlink.com 1.10,2013-05-31 03:38:00,
2013-05-30 23:53:00,60.0,58.0,30.04,SE,136,0.0,0.0,93,0.00,,,0.00,weatherlink.com 1.10,2013-05-31 03:53:00,